Date_and_time,latitude,longitude,wind_speed,RelWindDirFrom,WindDirFrom,air_pressure,air_temperature,relative_humidity,Temp,platform_speed_wrt_ground,air_pressure_at_mean_sea_level,platform_orientation
2018-06-01 23:50,50.63044,-96.98077,14.9,18.8,83,988.58,15.2,70,17.07,0.0,1014.99,110.3
2018-06-02 00:00,50.6304416666667,-96.9807716666667,17.0,20.1,81,988.50,15.2,69,17.07,0.0,1014.90,311.7
2018-06-02 00:10,50.6304416666667,-96.98077,18.6,21.4,78,988.23,15.2,70,17.07,0.0,1014.62,311.7
2018-06-02 00:20,50.6304416666667,-96.98077,17.0,21.4,85,988.52,15.2,68,17.06,0.0,1014.92,311.7
2018-06-02 00:30,50.6304416666667,-96.9807716666667,16.2,19.3,82,988.43,15.0,69,17.04,0.0,1014.84,311.7
2018-06-02 00:40,50.63044,-96.98077,15.1,19.3,73,988.57,14.7,70,17.07,0.0,1015.00,311.7
2018-06-02 00:50,50.6304333333333,-96.9807533333333,15.4,18.5,75,988.34,15.0,68,17.09,0.0,1014.75,311.7
2018-06-02 01:00,50.6304383333333,-96.9807616666667,14.8,18.0,75,988.32,15.0,69,17.07,0.0,1014.73,345.5
2018-06-02 01:10,50.6304366666667,-96.9807583333333,14.1,17.2,73,988.28,14.9,68,17.08,0.0,1014.68,345.5
2018-06-02 01:20,50.6304366666667,-96.98076,15.2,18.4,71,987.97,14.9,68,17.05,0.0,1014.36,345.5
2018-06-02 01:30,50.6304183333333,-96.98078,15.1,19.6,69,987.94,14.7,68,17.05,0.0,1014.35,345.5
2018-06-02 01:40,50.6304366666667,-96.9807683333333,17.5,19.9,71,987.43,14.8,67,17.09,0.0,1013.81,345.5
2018-06-02 01:50,50.630435,-96.98077,18.7,21.1,74,987.22,14.9,66,17.05,0.0,1013.60,345.5
2018-06-02 02:00,50.6304333333333,-96.980765,18.4,22.3,76,987.34,14.9,66,17.01,0.0,1013.72,305.3
2018-06-02 02:10,50.630435,-96.98076,17.3,20.1,78,987.69,14.9,66,17.00,0.0,1014.08,305.3
2018-06-02 02:20,50.630435,-96.9807516666667,17.7,21.0,77,987.63,14.8,65,16.98,0.0,1014.03,305.3
2018-06-02 02:30,50.6304383333333,-96.9807533333333,17.9,20.8,77,987.57,14.8,66,16.94,0.0,1013.98,305.3
2018-06-02 02:40,50.6304383333333,-96.9807566666667,18.4,21.6,74,987.23,14.8,67,16.92,0.0,1013.62,305.3
2018-06-02 02:50,50.63044,-96.9807583333333,18.6,22.0,71,986.99,14.7,68,16.94,0.0,1013.38,305.3
2018-06-02 03:00,50.63044,-96.98076,17.9,21.6,75,987.33,14.7,68,16.95,0.0,1013.73,90.0
2018-06-02 03:10,50.6304416666667,-96.98076,18.2,21.2,78,987.47,14.7,68,16.95,0.0,1013.87,90.0
2018-06-02 03:20,50.6304766666667,-96.980775,17.8,21.1,79,987.34,14.7,68,16.90,0.0,1013.74,90.0
2018-06-02 03:30,50.6304416666667,-96.980755,18.0,21.9,81,987.14,14.8,68,16.90,0.0,1013.53,90.0
2018-06-02 03:40,50.630425,-96.98076,17.9,21.7,82,986.99,14.8,68,16.90,0.0,1013.37,90.0
2018-06-02 03:50,50.6304316666667,-96.9807666666667,17.5,21.4,84,986.77,14.8,69,16.83,0.0,1013.15,90.0
2018-06-02 04:00,50.6304366666667,-96.9807683333333,17.4,20.8,83,986.42,14.7,69,16.85,0.0,1012.79,192.6
2018-06-02 04:10,50.6304383333333,-96.9807683333333,17.7,21.9,84,986.21,14.7,70,16.83,0.0,1012.58,192.6
2018-06-02 04:20,50.630435,-96.9807616666667,15.2,18.7,88,986.39,14.7,70,16.80,0.0,1012.77,192.6
2018-06-02 04:30,50.6304333333333,-96.9807633333333,13.4,18.5,91,986.54,14.7,70,16.78,0.0,1012.93,192.6
2018-06-02 04:40,50.630435,-96.980765,13.8,17.4,89,986.30,14.7,71,16.78,0.0,1012.68,192.6
2018-06-02 04:50,50.63044,-96.98077,12.5,16.0,97,986.64,14.8,70,16.76,0.0,1013.03,192.6
2018-06-02 05:00,50.630435,-96.9807616666667,14.5,18.5,105,986.72,14.9,69,16.76,0.0,1013.10,48.3
2018-06-02 05:10,50.63045,-96.98078,16.4,20.7,100,986.28,15.0,68,16.77,0.0,1012.64,48.3
2018-06-02 05:20,50.630445,-96.9807666666667,18.3,23.0,102,986.18,15.1,66,16.76,0.0,1012.53,48.3
2018-06-02 05:30,50.630445,-96.9807683333333,18.0,23.0,104,986.26,15.1,65,16.75,0.0,1012.61,48.3
2018-06-02 05:40,50.6304433333333,-96.9807666666667,16.1,20.3,122,986.99,15.1,64,16.76,0.0,1013.37,48.3
2018-06-02 05:50,50.6304416666667,-96.9807666666667,17.5,22.3,132,987.29,14.9,62,16.73,0.0,1013.68,48.3
2018-06-02 06:00,50.6304416666667,-96.980765,19.8,24.6,141,987.82,14.7,61,16.71,0.0,1014.24,270.0
2018-06-02 06:10,50.6304416666667,-96.980765,18.7,23.5,146,987.72,14.4,64,16.68,0.0,1014.15,270.0
2018-06-02 06:20,50.6304416666667,-96.980765,18.5,24.0,145,987.50,14.5,66,16.67,0.0,1013.92,270.0
2018-06-02 06:30,50.6304416666667,-96.980765,17.5,22.5,143,987.04,14.4,67,16.65,0.0,1013.45,270.0
2018-06-02 06:40,50.6304266666667,-96.98076,17.8,23.2,135,986.58,14.7,70,16.64,0.0,1012.97,270.0
2018-06-02 06:50,50.6304333333333,-96.98076,18.9,24.4,130,986.31,14.8,72,16.62,0.0,1012.67,270.0
2018-06-02 07:00,50.6304366666667,-96.9807616666667,19.2,24.8,128,985.88,14.8,74,16.62,0.0,1012.23,90.0
2018-06-02 07:10,50.6304366666667,-96.9807616666667,20.3,24.6,122,985.54,14.7,76,16.59,0.0,1011.88,90.0
2018-06-02 07:20,50.6304383333333,-96.9807583333333,21.3,25.1,115,985.14,14.6,76,16.57,0.0,1011.48,90.0
2018-06-02 07:30,50.6304366666667,-96.9807583333333,20.1,24.7,103,984.42,14.5,79,16.57,0.0,1010.75,90.0
2018-06-02 07:40,50.6304366666667,-96.9807583333333,21.7,26.5,100,983.73,14.3,81,16.55,0.0,1010.05,90.0
2018-06-02 07:50,50.6304366666667,-96.9807583333333,21.7,27.4,97,982.71,14.1,84,16.54,0.0,1009.02,90.0
2018-06-02 08:00,50.6304366666667,-96.9807583333333,22.9,30.5,93,981.72,14.0,85,16.52,0.0,1008.02,0.0
2018-06-02 08:10,50.6304383333333,-96.980765,24.5,32.1,93,981.20,14.0,87,16.49,0.0,1007.49,0.0
2018-06-02 08:20,50.6304333333333,-96.9807633333333,26.6,34.8,92,980.74,13.9,87,16.45,0.0,1007.02,0.0
2018-06-02 08:30,50.6304233333333,-96.9807583333333,24.8,32.0,95,980.99,13.8,87,16.42,0.0,1007.27,0.0
2018-06-02 08:40,50.6304333333333,-96.9807566666667,23.3,29.4,97,981.22,13.9,87,16.39,0.0,1007.50,0.0
2018-06-02 08:50,50.63044,-96.9807583333333,23.5,30.2,100,981.55,13.9,86,16.38,0.0,1007.84,0.0
2018-06-02 09:00,50.6304466666667,-96.9807633333333,18.9,24.6,117,982.54,13.9,86,16.35,0.0,1008.86,360.0
2018-06-02 09:10,50.630435,-96.9807516666667,17.5,28.5,130,982.72,13.7,85,16.37,0.0,1009.05,360.0
2018-06-02 09:20,50.6304383333333,-96.9807566666667,17.2,25.2,136,982.86,13.6,86,16.40,0.0,1009.21,360.0
2018-06-02 09:30,50.6304383333333,-96.9807566666667,22.6,29.9,128,982.76,13.9,87,16.41,0.0,1009.10,360.0
2018-06-02 09:40,50.6304483333333,-96.980785,23.2,32.8,136,982.72,13.7,87,16.39,0.0,1009.08,360.0
2018-06-02 09:50,50.63044,-96.980765,24.0,32.3,131,982.56,13.8,88,16.36,0.0,1008.91,360.0
2018-06-02 10:00,50.6304383333333,-96.9807683333333,24.0,29.9,131,982.51,13.9,88,16.33,0.0,1008.86,347.4
2018-06-02 10:10,50.6304333333333,-96.9807633333333,23.0,30.3,132,982.52,13.8,88,16.29,0.0,1008.88,347.4
2018-06-02 10:20,50.6304416666667,-96.9807583333333,20.6,25.9,130,982.55,14.0,90,16.28,0.0,1008.90,347.4
2018-06-02 10:30,50.6304383333333,-96.98076,23.3,29.4,127,982.36,14.0,90,16.26,0.0,1008.71,347.4
2018-06-02 10:40,50.6304333333333,-96.9807433333333,27.3,32.9,127,982.20,13.9,88,16.25,0.0,1008.55,347.4
2018-06-02 10:50,50.6304383333333,-96.9807466666667,27.0,33.7,131,981.98,13.7,86,16.22,0.0,1008.33,347.4
2018-06-02 11:00,50.6304333333333,-96.9807466666667,27.1,36.3,131,982.04,13.5,85,16.20,0.0,1008.40,119.2
2018-06-02 11:10,50.6304416666667,-96.9807583333333,26.4,33.7,132,981.90,13.3,84,16.20,0.0,1008.28,119.2
2018-06-02 11:20,50.6304416666667,-96.9807583333333,23.0,29.8,130,981.91,13.3,86,16.22,0.0,1008.27,119.2
2018-06-02 11:30,50.6304416666667,-96.9807633333333,20.3,27.4,136,982.27,13.0,86,16.21,0.0,1008.67,119.2
2018-06-02 11:40,50.6304416666667,-96.9807633333333,20.6,26.3,135,982.35,12.9,85,16.21,0.0,1008.74,119.2
2018-06-02 11:50,50.630435,-96.98077,21.6,26.6,135,982.37,12.9,84,16.20,0.0,1008.76,119.2
2018-06-02 12:00,50.6304333333333,-96.980765,21.3,27.8,133,982.38,12.9,84,16.20,0.0,1008.78,161.1
2018-06-02 12:10,50.630435,-96.9807633333333,21.2,26.6,131,982.30,13.0,84,16.17,0.0,1008.69,161.1
2018-06-02 12:20,50.630435,-96.980765,23.3,27.6,128,982.28,13.1,84,16.15,0.0,1008.66,161.1
2018-06-02 12:30,50.63044,-96.980755,23.1,29.2,125,982.15,13.0,83,16.14,0.0,1008.53,161.1
2018-06-02 12:40,50.63043,-96.9807666666667,24.0,30.7,127,982.00,13.0,82,16.13,0.0,1008.39,161.1
2018-06-02 12:50,50.630445,-96.98077,21.4,27.5,129,982.00,12.9,83,16.11,0.0,1008.40,161.1
2018-06-02 13:00,50.6304366666667,-96.9807616666667,21.9,28.4,130,981.91,12.9,82,16.09,0.0,1008.32,167.4
2018-06-02 13:10,50.6304383333333,-96.9807616666667,22.1,27.1,125,981.86,13.0,83,16.07,0.0,1008.26,167.4
2018-06-02 13:20,50.63044,-96.9807583333333,22.1,28.9,126,981.76,13.0,82,16.06,0.0,1008.18,167.4
2018-06-02 13:30,50.6304366666667,-96.9807583333333,23.1,29.4,128,981.69,13.1,80,16.06,0.0,1008.10,167.4
2018-06-02 13:40,50.6304166666667,-96.9807816666667,21.8,27.4,127,981.72,13.1,81,16.03,0.0,1008.13,167.4
2018-06-02 13:50,50.6304216666667,-96.98075,21.7,27.3,128,981.65,13.1,81,16.01,0.0,1008.06,167.4
2018-06-02 14:00,50.6304333333333,-96.98075,24.1,28.6,127,981.49,13.1,79,16.01,0.0,1007.90,270.0
2018-06-02 14:10,50.6304366666667,-96.9807683333333,25.6,32.0,127,981.34,13.1,77,15.99,0.0,1007.74,270.0
2018-06-02 14:20,50.6304333333333,-96.9807666666667,22.1,28.1,131,981.30,12.9,77,15.96,0.0,1007.71,270.0
2018-06-02 14:30,50.6304316666667,-96.980765,21.9,26.6,129,981.16,13.1,78,15.94,0.0,1007.56,270.0
2018-06-02 14:40,50.6304316666667,-96.980765,22.0,26.2,127,980.81,13.1,77,15.94,0.0,1007.20,270.0
2018-06-02 14:50,50.6304333333333,-96.980765,21.9,28.2,124,980.70,13.2,79,15.94,0.0,1007.09,270.0
2018-06-02 15:00,50.6304333333333,-96.980765,24.7,30.2,126,980.73,13.2,78,15.93,0.0,1007.11,0.0
2018-06-02 15:10,50.630445,-96.9807683333333,25.5,30.2,128,980.66,12.9,80,15.90,0.0,1007.05,0.0
2018-06-02 15:20,50.6304383333333,-96.9807633333333,21.5,26.5,129,980.70,12.8,83,15.89,0.0,1007.09,0.0
2018-06-02 15:30,50.6304383333333,-96.9807683333333,23.8,30.2,128,980.69,12.9,81,15.89,0.0,1007.08,0.0
2018-06-02 15:40,50.6304383333333,-96.9807683333333,23.2,29.9,131,980.69,12.6,84,15.87,0.0,1007.09,0.0
2018-06-02 15:50,50.63044,-96.9807683333333,24.1,30.3,129,980.70,12.5,88,15.85,0.0,1007.11,0.0
2018-06-02 16:00,50.6304383333333,-96.9807666666667,23.1,27.6,129,980.62,12.2,92,15.84,0.0,1007.04,347.4
2018-06-02 16:10,50.6304366666667,-96.9807666666667,22.3,27.8,132,980.57,11.9,93,15.83,0.0,1007.01,347.4
2018-06-02 16:20,50.630435,-96.9807666666667,22.0,29.3,131,980.52,11.9,94,15.82,0.0,1006.95,347.4
2018-06-02 16:30,50.630435,-96.980765,22.0,27.6,132,980.49,12.0,95,15.80,0.0,1006.92,347.4
2018-06-02 16:40,50.630435,-96.9807666666667,21.6,27.1,130,980.34,12.1,97,15.79,0.0,1006.76,347.4
2018-06-02 16:50,50.6304333333333,-96.9807666666667,22.1,28.8,127,980.14,12.3,96,15.79,0.0,1006.54,347.4
2018-06-02 17:00,50.6304333333333,-96.980765,20.6,26.9,128,980.02,12.4,96,15.78,0.0,1006.43,270.0
2018-06-02 17:10,50.6304316666667,-96.9807666666667,22.6,27.7,126,979.99,12.4,96,15.77,0.0,1006.39,270.0
2018-06-02 17:20,50.6304333333333,-96.9807666666667,23.8,29.4,128,979.98,12.3,98,15.76,0.0,1006.39,270.0
2018-06-02 17:30,50.6304333333333,-96.980765,23.0,28.6,129,980.09,12.2,99,15.74,0.0,1006.51,270.0
2018-06-02 17:40,50.6304333333333,-96.980765,21.8,27.7,135,980.11,12.0,99,15.71,0.0,1006.55,270.0
2018-06-02 17:50,50.6304333333333,-96.980765,19.5,25.4,134,980.06,12.1,99,15.69,0.0,1006.51,270.0
2018-06-02 18:00,50.6304333333333,-96.980765,19.8,25.8,134,979.93,12.0,99,15.67,0.0,1006.39,0.0
2018-06-02 18:10,50.6304366666667,-96.9807566666667,21.2,27.5,133,979.86,12.0,100,15.68,0.0,1006.33,0.0
2018-06-02 18:20,50.6304366666667,-96.9807533333333,22.1,27.5,130,979.71,12.0,100,15.66,0.0,1006.17,0.0
2018-06-02 18:30,50.6304383333333,-96.9807566666667,20.4,26.3,131,979.61,12.0,100,15.65,0.0,1006.07,0.0
2018-06-02 18:40,50.630435,-96.9807566666667,21.4,26.1,129,979.50,12.1,100,15.64,0.0,1005.93,0.0
2018-06-02 18:50,50.630435,-96.9807566666667,19.9,25.9,128,979.49,12.2,100,15.62,0.0,1005.91,0.0
2018-06-02 19:00,50.6304366666667,-96.9807583333333,21.0,24.7,126,979.32,12.1,100,15.60,0.0,1005.74,167.4
2018-06-02 19:10,50.6304383333333,-96.98076,20.4,25.1,127,979.11,12.1,100,15.58,0.0,1005.53,167.4
2018-06-02 19:20,50.63044,-96.98076,19.8,24.6,127,978.97,12.2,100,15.55,0.0,1005.39,167.4
2018-06-02 19:30,50.63044,-96.98076,21.4,25.2,129,979.00,12.1,100,15.57,0.0,1005.43,167.4
2018-06-02 19:40,50.63044,-96.98076,20.1,25.3,128,979.04,12.2,100,15.59,0.0,1005.46,167.4
2018-06-02 19:50,50.6304416666667,-96.9807583333333,20.8,24.3,124,978.91,12.3,100,15.59,0.0,1005.33,167.4
2018-06-02 20:00,50.6304416666667,-96.98076,19.2,24.5,125,978.84,12.5,100,15.59,0.0,1005.25,41.3
2018-06-02 20:10,50.6304416666667,-96.98076,20.9,25.7,125,978.79,12.6,100,15.59,0.0,1005.20,41.3
2018-06-02 20:20,50.6304316666667,-96.98077,21.5,25.7,124,978.61,12.6,100,15.58,0.0,1005.00,41.3
2018-06-02 20:30,50.6304266666667,-96.980765,20.6,27.8,127,978.64,12.7,100,15.56,0.0,1005.03,41.3
2018-06-02 20:40,50.6304283333333,-96.9807616666667,20.4,25.1,128,978.69,12.8,100,15.56,0.0,1005.07,41.3
2018-06-02 20:50,50.63043,-96.9807583333333,20.5,26.6,129,978.76,12.8,100,15.54,0.0,1005.14,41.3
2018-06-02 21:00,50.6304316666667,-96.98076,20.2,24.4,125,978.71,13.0,100,15.53,0.0,1005.09,90.0
2018-06-02 21:10,50.6304316666667,-96.9807616666667,21.6,27.2,121,978.72,13.1,100,15.53,0.0,1005.09,90.0
2018-06-02 21:20,50.630425,-96.9807616666667,22.1,26.5,124,978.61,13.1,100,15.53,0.0,1004.98,90.0
2018-06-02 21:30,50.6304316666667,-96.9807616666667,22.0,26.1,123,978.57,13.1,100,15.52,0.0,1004.93,90.0
2018-06-02 21:40,50.6304316666667,-96.9807616666667,21.7,26.0,122,978.55,13.1,100,15.52,0.0,1004.91,90.0
2018-06-02 21:50,50.6304383333333,-96.98076,20.1,24.0,120,978.59,13.3,100,15.50,0.0,1004.94,90.0
2018-06-02 22:00,50.6304183333333,-96.9807783333333,19.9,24.0,124,978.55,13.2,100,15.51,0.0,1004.89,216.6
2018-06-02 22:10,50.6304116666667,-96.980765,19.4,23.1,121,978.50,13.3,100,15.51,0.0,1004.83,216.6
2018-06-02 22:20,50.6304183333333,-96.98076,19.0,22.4,119,978.43,13.3,100,15.50,0.0,1004.76,216.6
2018-06-02 22:30,50.6304233333333,-96.98076,19.6,24.6,121,978.41,13.3,100,15.48,0.0,1004.74,216.6
2018-06-02 22:40,50.6304266666667,-96.9807616666667,20.6,24.9,122,978.36,13.4,100,15.49,0.0,1004.68,216.6
2018-06-02 22:50,50.6304266666667,-96.9807633333333,20.6,24.8,123,978.24,13.3,101,15.51,0.0,1004.55,216.6
2018-06-02 23:00,50.63043,-96.9807716666667,19.9,24.4,120,978.23,13.4,101,15.49,0.0,1004.53,212.5
2018-06-02 23:10,50.630445,-96.9807733333333,19.6,24.0,121,978.19,13.2,101,15.49,0.0,1004.50,212.5
2018-06-02 23:20,50.6304416666667,-96.98077,18.6,22.1,118,978.16,13.2,101,15.50,0.0,1004.46,212.5
2018-06-02 23:30,50.6304416666667,-96.98077,18.8,23.0,116,978.08,13.4,101,15.49,0.0,1004.37,212.5
